Location: Albuquerque Trailhead
(34.7934°N, 106.3736°W)
Time: 05:37:47
(UTC+00:00)

Cosmos 2100 Rocket - Pass Details

Date: 20 June 2021
Orbit: 955 x 1001 km, 82.9° (Epoch: 29 July)

Event Time Altitude Azimuth Distance (km) Brightness Sun altitude
Rises 04:15:59 0° 354° (N) 3,724 8.0 -19.0°
Reaches altitude 10° 04:18:32 10° 355° (N) 2,767 7.1 -19.4°
Maximum altitude 04:24:54 87° 84° (E) 995 4.0 -20.2°
Enters shadow 04:28:07 31° 173° (S) 1,637 4.7 -20.6°
